TimeCST,TemperatureF,Dew PointF,Humidity,Sea Level PressureIn,VisibilityMPH,Wind Direction,Wind SpeedMPH,Gust SpeedMPH,PrecipitationIn,Events,Conditions,WindDirDegrees,DateUTC
12:54 AM,21.9,16.0,78,29.86,10.0,WNW,16.1,21.9,N/A,,Overcast,290,2012-01-24 06:54:00
1:54 AM,21.0,16.0,81,29.90,10.0,West,15.0,23.0,N/A,,Overcast,280,2012-01-24 07:54:00
2:54 AM,21.0,16.0,81,29.94,10.0,WNW,17.3,23.0,N/A,,Overcast,300,2012-01-24 08:54:00
4:54 AM,19.9,15.1,81,30.00,10.0,WNW,15.0,21.9,N/A,,Overcast,290,2012-01-24 10:54:00
5:54 AM,19.9,15.1,81,30.04,10.0,WNW,12.7,-,N/A,,Overcast,290,2012-01-24 11:54:00
6:54 AM,19.9,15.1,81,30.08,10.0,WNW,13.8,20.7,N/A,,Overcast,290,2012-01-24 12:54:00
7:54 AM,19.9,15.1,81,30.11,10.0,WNW,11.5,-,N/A,,Overcast,290,2012-01-24 13:54:00
8:54 AM,19.9,15.1,81,30.14,9.0,WNW,10.4,-,N/A,,Overcast,300,2012-01-24 14:54:00
9:54 AM,19.9,14.0,78,30.18,10.0,WNW,17.3,-,N/A,,Overcast,300,2012-01-24 15:54:00
10:54 AM,21.0,15.1,78,30.21,10.0,WNW,12.7,19.6,N/A,,Overcast,290,2012-01-24 16:54:00
11:54 AM,21.0,15.1,78,30.21,10.0,NW,8.1,-,N/A,,Overcast,310,2012-01-24 17:54:00
12:54 PM,23.0,15.1,72,30.23,10.0,WNW,9.2,-,N/A,,Mostly Cloudy,290,2012-01-24 18:54:00
1:10 PM,23.0,15.8,74,30.16,10.0,West,8.1,-,N/A,,Scattered Clouds,280,2012-01-24 19:10:00
1:54 PM,24.1,16.0,71,30.23,10.0,WNW,6.9,-,N/A,,Clear,290,2012-01-24 19:54:00
2:54 PM,24.1,16.0,71,30.25,10.0,WNW,5.8,-,N/A,,Clear,290,2012-01-24 20:54:00
3:54 PM,24.1,15.1,69,30.27,10.0,West,4.6,-,N/A,,Clear,280,2012-01-24 21:54:00
4:54 PM,21.9,14.0,72,30.30,9.0,Calm,Calm,-,N/A,,Clear,0,2012-01-24 22:54:00
5:54 PM,19.0,14.0,81,30.30,9.0,Calm,Calm,-,N/A,,Clear,0,2012-01-24 23:54:00
6:54 PM,16.0,12.0,84,30.33,7.0,WNW,3.5,-,N/A,,Clear,290,2012-01-25 00:54:00
7:54 PM,16.0,10.9,81,30.33,7.0,West,3.5,-,N/A,,Clear,270,2012-01-25 01:54:00
9:54 PM,16.0,12.0,84,30.32,7.0,Calm,Calm,-,N/A,,Clear,0,2012-01-25 03:54:00
10:54 PM,12.9,10.0,88,30.33,6.0,Calm,Calm,-,N/A,,Clear,0,2012-01-25 04:54:00
11:54 PM,15.1,10.9,84,30.32,6.0,Calm,Calm,-,N/A,,Overcast,0,2012-01-25 05:54:00